Zurück zum Katalog

STARLINK-37544

AktivKommunikationSSO
NORAD 68909·PAYLOAD·🇺🇸 United States

Gestartet Apr 30, 2026 von Vandenberg Space Force Base

Loading…

Nächste Überflüge (nächste 24 Stunden)

TLE

AktuellSource: CelesTrak SupGP

Epoche: Sep 14, 2026, 21:05 UTC

1 68909C 26097Q   26257.87895833  .00073546  00000+0  22840-2 0  2578
2 68909  97.2850  92.0603 0001432  92.1462  57.0377 15.33388141    16

Verfolge STARLINK-37544 in Echtzeit mit AllMySat

Download on the App Store